EDHL

Lübeck Airport

Airport
ICAO code
EDHL
IATA Code
LBC
Summary
ICAO Region
EUR
ICAO Territory
Location

Lübeck, Schleswig-Holstein

Serving
Lübeck
Elevation
85 ft
Coordinates
53° 48' 19" N , 10° 42' 6" E
KCC
Metar
Observation
EDHL 031920Z 31013KT 280V340 8000 BKN010 06/05 Q1018
Station
Luebeck-Blankensee
Date/Time
2023-02-03 19:20:00
Wind direction
310°
Wind speed
13 kts
Lowest cloud amount
broken clouds
Temperature
6°C
Dew point
5°C
Humidity
93%
QNH
1018 hPa
Weather condition
n/a

Description

International airport located 8km south of the city of Lübeck, in the north of Germany.

Climatology

Temperate Marine climate/Oceanic climate (Köppen climate classification Cfb) - Moderately cool summer and comparatively warm winter.

Runways

Designator Length Width Surface Rops
7/25 2102 60 ASP Yes/Yes

Airport map

Aerial View

SKYbrary Partners:

Safety knowledge contributed by: